Location: Sigmaringen
(48.0900°N, 9.2120°E)
Time: 17:12:42
(UTC+01:00)

ISS - Pass Details

Date: 12 November 2017
Orbit: 402 x 407 km, 51.6° (Epoch: 20 November)

Event Time Altitude Azimuth Distance (km) Brightness Sun altitude
Exits shadow 05:52:43 35° 304° (WNW) 667 -3.2 -15.5°
Maximum altitude 05:53:55 71° 19° (NNE) 428 -3.8 -15.3°
Drops below altitude 10° 05:57:10 10° 104° (ESE) 1,454 0.4 -14.8°
Sets 05:59:15 0° 107° (ESE) 2,311 1.9 -14.4°
